User: anonymous   Login
Location: Goheenville
(40.9070°N, 79.3720°W)
Time: 15:14:51
(UTC-04:00)
Language:

Cosmos 1633 - Orbit

View from above orbital plane
View from above orbital plane
View from above satellite
View from above satellite

Ground track
Ground track

The orbit data is extracted from the following two-line orbital elements,

1 15592U 85020A   17141.93558718 +.00001649 +00000-0 +58248-4 0  9998
2 15592 082.5373 345.6167 0011994 270.7546 089.2319 15.28411698760009
Epoch (UTC): 21 May 2017 22:27:14
Eccentricity: 0.0011994
inclination: 82.5373°
perigee height: 472 km
apogee height: 489 km
right ascension of ascending node: 345.6167°
argument of perigee: 270.7546°
revolutions per day: 15.28411698
mean anomaly at epoch: 89.2319°
orbit number at epoch: 76000

The dashed part of the orbit path shows where the satellite is in the earth's shadow,  

DLR